Location: Aldenham
(51.6667°N, 0.3500°W)
Time: 03:43:23
(UTC+00:00)

Altair - Pass Details

Date: 24 February 2026
Orbit: 1502 x 1682 km, 47.2° (Epoch: 7 March)

Event Time Altitude Azimuth Distance (km) Brightness Sun altitude
Rises 06:36:31 0° 271° (W) 4,648 - -4.0°
Exits shadow 06:37:41 - 271° (W) 4,269 9.2 -3.8°
Reaches altitude 10° 06:39:32 10° 269° (W) 3,677 8.9 -3.6°
Maximum altitude 06:48:39 65° 190° (S) 1,673 7.8 -2.2°
Drops below altitude 10° 06:58:05 10° 112° (ESE) 3,794 11.7 -0.8°
Sets 07:01:15 0° 110° (ESE) 4,803 13.3 -0.3°
